Location: Linz
(48.3300°N, 14.3000°E)
Time: 22:09:26
(UTC+01:00)

Vanguard 2 Rocket - Visible Passes

Search period start: 17 November 2017 00:00
Search period end: 27 November 2017 00:00
Orbit: 556 x 3326 km, 32.9° (Epoch: 17 November)

Date Brightness Start Highest point End Pass type
(mag) Time Alt. Az. Time Alt. Az. Time Alt. Az.
17 Nov 9.6 02:43:49 23° SSE 02:43:49 23° SSE 02:49:17 10° ESE visible
17 Nov 9.0 04:49:38 17° SW 04:55:39 28° S 05:01:32 10° SE visible
18 Nov 10.1 01:47:50 15° SE 01:47:50 15° SE 01:49:52 10° ESE visible
18 Nov 9.2 03:53:39 27° SSW 03:56:08 30° S 04:03:03 10° ESE visible
18 Nov 8.9 06:01:40 10° WSW 06:09:00 24° SSW 06:13:59 10° SE visible
19 Nov 9.4 02:57:38 29° SSE 02:57:38 29° SSE 03:04:18 10° ESE visible
19 Nov 9.0 05:03:27 17° SW 05:09:48 29° S 05:15:56 10° SE visible
20 Nov 9.9 02:01:34 21° SE 02:01:34 21° SE 02:05:11 10° ESE visible
20 Nov 9.1 04:07:23 30° SSW 04:10:18 33° S 04:17:35 10° ESE visible
20 Nov 9.1 06:15:54 10° WSW 06:22:58 22° SSW 06:27:52 10° SSE visible
21 Nov 10.4 01:05:29 10° ESE 01:05:29 10° ESE 01:05:37 10° ESE visible
21 Nov 9.2 03:11:17 35° S 03:11:17 35° S 03:18:57 10° ESE visible
21 Nov 9.0 05:17:06 16° WSW 05:23:51 29° SSW 05:30:05 10° SE visible
22 Nov 9.7 02:15:10 27° SE 02:15:10 27° SE 02:20:00 10° ESE visible
22 Nov 9.0 04:20:59 30° SW 04:24:23 34° S 04:31:54 10° SE visible
22 Nov 9.3 06:30:29 10° WSW 06:36:44 18° SW 06:41:19 10° S visible
23 Nov 10.2 01:19:03 15° ESE 01:19:03 15° ESE 01:20:41 10° ESE visible
23 Nov 9.2 03:24:51 38° S 03:24:51 38° S 03:33:23 10° ESE visible
23 Nov 9.2 05:30:40 15° WSW 05:37:43 26° SSW 05:43:58 10° SSE visible
24 Nov 9.5 02:28:42 32° SE 02:28:42 32° SE 02:34:33 10° ESE visible
24 Nov 9.1 04:34:31 28° SW 04:38:21 33° SSW 04:46:00 10° SE visible
24 Nov 9.5 06:45:46 10° WSW 06:50:19 14° SW 06:53:59 10° SSW visible
25 Nov 10.1 01:32:33 20° ESE 01:32:33 20° ESE 01:35:21 10° ESE visible
25 Nov 9.2 03:38:22 39° SSW 03:38:35 39° S 03:47:37 10° SE visible
25 Nov 9.4 05:44:10 13° WSW 05:51:25 22° SW 05:57:27 10° SSE visible
26 Nov 9.4 02:42:12 36° SSE 02:42:12 36° SSE 02:48:54 10° ESE visible
26 Nov 9.3 04:48:01 25° SW 04:52:09 30° SSW 04:59:50 10° SSE visible
